www.pogodaiklimat.ru

Погода и климат >> Архив погоды >> Австрия >> Кальванг


ПОГОДА в Кальванге

  • Прогноз погоды в Кальванге
  • Монитор погоды в Кальванге

АРХИВ ПОГОДЫ в Кальванге

Время (UTC), дата Ветер
(напр.,м/с)
 
Видим.   Явления Облачность Т
(С)
Тd
(С)
f
(%)
Тe
(С)
Тes
(С)
Комфортность P
(гПа)
Po
(гПа)
Тmin
(С)
Tmax
(С)
R
(мм)
R24
(мм)
S
(см)
19 16.09 З 2 н/о н/о +16.9 +12.6 76 +17 +17 1016.9 932.4
20 16.09 З 2 н/о н/о +16.4 +12.2 76 +17 +17 1017.1 932.4
21 16.09 штиль 0 н/о н/о +15.9 +12.5 80 +16 +16 1016.9 932.1
22 16.09 З 2 н/о н/о +16.5 +12.7 78 +17 +17 1016.7 932.1
23 16.09 ЮЗ 1 н/о в посл. час осадки н/о +16.4 +13.7 84 +17 +17 1017.2 932.6 0.8
00 17.09 СЗ 2 н/о в посл. час осадки н/о +15.7 +13.7 88 +16 +16 1017.3 932.5 1
01 17.09 З 3 н/о н/о +15.4 +13.4 88 +15 +15 1016.5 931.6 0.0
02 17.09 СЗ 3 н/о в посл. час осадки н/о +14.6 +12.9 90 +14 +14 1016.5 931.4 0.1
03 17.09 СЗ 3 н/о {осадки} н/о +14.7 +13.0 90 +14 +14 1016.4 931.3 0.1
04 17.09 СЗ 3 н/о н/о +14.5 +12.9 90 +14 +14 1016.4 931.3
05 17.09 З 3 н/о н/о +14.7 +13.1 90 +14 +14 1016.6 931.5
06 17.09 З 3 н/о {осадки} н/о +15.0 +13.0 88 +14 +14 1016.5 931.5 +14.4 +18.8 1
07 17.09 З 4 н/о н/о +16.2 +13.1 82 +15 +15 1016.5 931.8
08 17.09 ЮЗ 3 н/о н/о +17.4 +12.5 73 +17 +17 1016.1 931.8
09 17.09 З 2 н/о н/о +18.4 +11.8 65 +19 +19 1015.5 931.5
10 17.09 З 3 н/о н/о +18.5 +12.4 68 +19 +19 1015.5 931.5
11 17.09 СЗ 6 н/о н/о +20.3 +10.0 52 +22 +22 комфорт 1014.5 931.0 0.0
12 17.09 З 5 н/о н/о +21.1 +9.9 49 +23 +23 комфорт 1013.7 930.5 0.0
13 17.09 З 5
{14}
н/о н/о +21.0 +9.2 47 +23 +23 комфорт 1013.2 930.0 0.0
14 17.09 З 5 н/о н/о +22.2 +9.4 44 +24 +24 комфорт 1012.1 929.3
15 17.09 З 4
{14}
н/о н/о +21.3 +9.4 47 +23 +23 комфорт 1012.1 929.1 0.0
16 17.09 СЗ 4 н/о н/о +20.0 +9.3 50 +21 +21 комфорт 1012.7 929.3
17 17.09 СЗ 3 н/о н/о +18.6 +9.3 55 +19 +19 1013.3 929.5
18 17.09 СЗ 4
{14}
н/о н/о +17.4 +9.7 61 +17 +17 1014.1 929.9 +15.0 +22.3 0.0
19 17.09 З 2 н/о н/о +16.3 +9.7 65 +16 +16 1015.3 930.7
20 17.09 З 3 н/о н/о +15.6 +9.6 67 +15 +15 1015.9 931.0
21 17.09 З 3 н/о н/о +14.8 +9.3 70 +14 +14 1016.0 930.9
22 17.09 СЗ 3 н/о н/о +15.3 +9.3 67 +15 +15 1016.1 931.1
23 17.09 СЗ 4 н/о н/о +15.9 +8.1 60 +15 +15 1016.0 931.2
00 18.09 СЗ 3 н/о н/о +15.0 +6.6 57 +14 +14 1017.2 932.0
01 18.09 СЗ 4 н/о н/о +14.5 +6.2 57 +13 +13 1017.3 931.9
02 18.09 СЗ 3 н/о н/о +14.0 +6.1 59 +13 +13 1017.9 932.3
03 18.09 СЗ 4 н/о н/о +13.5 +5.5 58 +12 +12 1018.7 932.9
04 18.09 СЗ 4 н/о н/о +13.0 +5.2 59 +11 +11 1019.6 933.6
05 18.09 СЗ 4 н/о н/о +12.6 +4.7 59 +11 +11 1020.5 934.3 0.0
06 18.09 СЗ 4 н/о н/о +12.0 +4.1 58 +10 +10 1021.6 935.1 +12.0 +17.8 0.0
07 18.09 СЗ 4 н/о н/о +12.1 +4.0 58 +10 +10 1022.2 935.7
08 18.09 З 5 н/о н/о +13.6 +4.1 53 +12 +12 1022.0 935.9
09 18.09 З 4 н/о н/о +15.0 +4.8 50 +14 +14 1021.4 935.8
10 18.09 СЗ 6 н/о н/о +15.8 +4.2 46 +15 +15 1021.0 935.6
11 18.09 З 6 н/о н/о +16.3 +4.0 44 +15 +15 1020.5 935.3
12 18.09 З 5 н/о н/о +17.4 +4.6 43 +17 +17 1019.6 934.8
13 18.09 З 6 н/о н/о +17.8 +4.0 40 +17 +17 1018.8 934.2
14 18.09 З 5 н/о н/о +18.0 +5.1 43 +18 +18 1018.5 934.0
15 18.09 СЗ 4 н/о н/о +17.2 +4.2 42 +17 +17 1018.9 934.1
16 18.09 СЗ 4 н/о н/о +16.2 +4.5 46 +16 +16 1019.5 934.4
17 18.09 С 4 н/о н/о +14.4 +4.4 51 +13 +13 1020.5 934.8
18 18.09 СЗ 4 н/о н/о +13.5 +4.3 54 +12 +12 1021.8 935.7 +11.9 +18.1
19 18.09 З 3 н/о н/о +12.1 +5.3 63 +11 +11 1023.1 936.5
20 18.09 З 3 н/о н/о +11.5 +6.4 71 +10 +10 1023.6 936.8
21 18.09 СЗ 2 н/о н/о +10.6 +6.5 76 +9 +9 1024.1 937.0
22 18.09 СЗ 3 н/о н/о +10.0 +5.8 75 +8 +8 1024.3 937.0
23 18.09 З 3 н/о н/о +9.5 +5.0 73 +7 +7 1024.9 937.4
00 19.09 З 2 н/о н/о +9.3 +5.2 76 +8 +8 1025.1 937.5
01 19.09 З 3 н/о н/о +9.1 +3.0 66 +7 +7 1025.1 937.4
02 19.09 З 2 н/о н/о +8.7 +3.0 67 +7 +7 1024.9 937.1
03 19.09 З 3 н/о н/о +7.9 +3.6 74 +5 +5 1025.4 937.4
04 19.09 СЗ 3 н/о н/о +7.7 +2.5 70 +5 +5 1025.6 937.5
05 19.09 СЗ 3 н/о н/о +6.4 +1.5 71 +4 +4 1026.5 937.9
06 19.09 СЗ 3 н/о н/о +6.9 +2.8 75 +4 +4 1027.0 938.5 +6.4 +13.7
07 19.09 СЗ 2 н/о н/о +8.3 +4.0 74 +7 +7 1026.7 938.7
08 19.09 З 3 н/о н/о +10.7 +2.8 58 +9 +9 1026.3 939.0
09 19.09 ЮЗ 2 н/о н/о +12.6 +1.4 46 +12 +12 1025.5 938.8
10 19.09 З 3 н/о н/о +13.9 +0.7 40 +13 +13 1024.7 938.4
11 19.09 СЗ 2 н/о н/о +14.0 +1.6 43 +14 +14 1024.4 938.2
12 19.09 З 3 н/о н/о +15.2 +0.7 37 +15 +15 1023.7 937.9
13 19.09 СЗ 5 н/о н/о +14.6 +0.8 39 +13 +13 1024.0 938.0
14 19.09 СЗ 3 н/о н/о +14.6 +0.1 37 +14 +14 1023.9 937.9 0.0
15 19.09 СЗ 4 н/о н/о +14.0 +0.2 39 +13 +13 1024.4 938.2 0.0
16 19.09 СЗ 4
{13}
н/о н/о +12.8 +0.5 43 +11 +11 1025.1 938.5
17 19.09 СЗ 3 н/о н/о +11.6 +0.6 47 +10 +10 1026.0 939.0
18 19.09 З 1
{13}
н/о н/о +10.0 +1.6 56 +10 +10 1027.3 939.7 +6.7 +15.4 0.0
19 19.09 З 2 н/о н/о +7.8 +1.9 66 +6 +6 1028.7 940.3
20 19.09 З 1 н/о н/о +6.7 +2.0 72 +6 +6 1029.8 941.0
21 19.09 СЗ 3 н/о н/о +5.6 +1.6 75 +2 +2 1030.5 941.3
22 19.09 СЗ 2 н/о н/о +4.7 +1.2 78 +2 +2 1030.9 941.4
23 19.09 З 2 н/о н/о +4.2 +1.0 80 +2 +2 1031.3 941.6
00 20.09 З 2 н/о н/о +4.0 +0.8 80 +1 +1 1031.1 941.4
01 20.09 З 1 н/о н/о +3.8 +0.6 80 +2 +2 1031.1 941.3
02 20.09 СЗ 3 н/о н/о +3.2 +0.6 83 -1 -1 1031.1 941.1
03 20.09 СЗ 2 н/о н/о +3.1 +0.4 82 0 0 1031.0 941.0
04 20.09 З 3 н/о н/о +3.0 +0.3 82 -1 -1 1030.8 940.8
05 20.09 З 2 н/о н/о +2.8 +0.1 82 -0 -0 1031.0 940.9
06 20.09 СЗ 2 н/о н/о +3.2 +0.5 82 0 0 1031.2 941.2 +2.6 +10.5
07 20.09 В 2 н/о н/о +5.4 +2.0 79 +3 +3 1030.7 941.4
08 20.09 В 2 н/о н/о +7.9 +2.2 67 +6 +6 1029.7 941.3
09 20.09 ЮВ 3 н/о н/о +10.5 +2.8 59 +9 +9 1028.8 941.2
10 20.09 ЮВ 2 н/о н/о +12.5 +2.6 51 +12 +12 1027.1 940.3
11 20.09 В 3 н/о н/о +13.6 +1.0 42 +13 +13 1026.3 939.8
12 20.09 ЮВ 2 н/о н/о +14.8 +1.1 39 +15 +15 1025.3 939.2
14 20.09 ЮВ 2 н/о н/о +15.9 +1.9 39 +16 +16 1023.8 938.2
15 20.09 Ю 2 н/о н/о +15.6 +2.1 40 +16 +16 1023.8 938.1
16 20.09 Ю 1 н/о н/о +14.4 +1.3 41 +15 +15 1024.6 938.5
17 20.09 З 1 н/о н/о +11.1 +3.7 60 +11 +11 1026.1 939.0
18 20.09 З 1 н/о н/о +8.9 +3.4 68 +9 +9 1027.7 939.8 +3.1 +16.1
19 20.09 З 1 н/о н/о +7.5 +2.8 72 +7 +7 1028.7 940.3
20 20.09 З 1 н/о н/о +6.2 +2.5 77 +5 +5 1029.4 940.5
21 20.09 штиль 0 н/о н/о +4.9 +2.3 83 +4 +4 1030.1 940.7
22 20.09 З 1 н/о н/о +4.5 +2.0 84 +3 +3 1030.2 940.7
23 20.09 штиль 0 н/о н/о +3.5 +1.7 88 +2 +2 1030.6 940.8
00 21.09 З 1 н/о н/о +3.2 +1.5 89 +2 +2 1031.0 941.0
01 21.09 штиль 0 н/о н/о +2.7 +1.2 90 +2 +2 1030.6 940.5
02 21.09 В 1 н/о н/о +1.7 +0.4 91 -0 -0 1030.8 940.4
03 21.09 З 1 н/о н/о +1.8 +0.7 92 -0 -0 1030.7 940.3
04 21.09 штиль 0 н/о н/о +1.1 0.0 92 -0 -0 1030.8 940.2
05 21.09 З 1 н/о н/о +1.0 +0.1 94 -1 -1 1030.8 940.1
06 21.09 штиль 0 н/о н/о +1.0 0.0 93 -0 -0 1030.9 940.2 +0.3 +9.2
07 21.09 штиль 0 н/о н/о +4.6 +2.7 87 +4 +4 1029.6 940.2
08 21.09 В 3 н/о н/о +7.6 +3.6 76 +5 +5 1028.4 940.0
09 21.09 ЮВ 4 н/о н/о +10.1 +4.3 67 +8 +8 1026.7 939.2
10 21.09 ЮВ 5 н/о н/о +12.9 +4.5 57 +11 +11 1025.0 938.5
11 21.09 ЮВ 5 н/о н/о +14.5 +4.2 50 +13 +13 1023.8 937.8
12 21.09 ЮВ 5 н/о н/о +16.2 +5.2 48 +15 +15 1022.5 937.1
13 21.09 В 5 н/о н/о +17.1 +5.6 47 +16 +16 1021.6 936.6
14 21.09 ЮВ 4 н/о н/о +17.3 +5.6 46 +17 +17 1020.7 935.8
15 21.09 ЮВ 4 н/о н/о +16.9 +5.7 48 +16 +16 1020.4 935.4
16 21.09 ЮВ 4 н/о н/о +15.8 +5.6 51 +15 +15 1020.6 935.3
17 21.09 ЮВ 2 н/о н/о +13.6 +6.0 60 +13 +13 1021.3 935.3
18 21.09 З 1 н/о н/о +10.9 +6.3 73 +11 +11 1022.5 935.7 +0.8 +17.8
19 21.09 СЗ 1 н/о н/о +9.2 +5.9 80 +9 +9 1023.2 935.8
20 21.09 штиль 0 н/о н/о +7.8 +5.2 84 +7 +7 1023.5 935.6
21 21.09 ЮВ 1 н/о н/о +6.0 +4.2 88 +5 +5 1024.1 935.6
22 21.09 ЮЗ 1 н/о н/о +6.0 +4.3 89 +5 +5 1023.7 935.3
23 21.09 штиль 0 н/о н/о +5.2 +3.7 90 +4 +4 1023.4 934.7
00 22.09 штиль 0 н/о н/о +4.3 +2.8 90 +3 +3 1023.3 934.4
01 22.09 штиль 0 н/о н/о +4.1 +2.8 91 +3 +3 1023.2 934.2
02 22.09 В 1 н/о н/о +3.2 +2.2 93 +2 +2 1023.3 934.0
03 22.09 З 1 н/о н/о +3.3 +2.4 94 +2 +2 1022.4 933.2
04 22.09 штиль 0 н/о н/о +3.6 +2.5 93 +2 +2 1021.9 932.9
05 22.09 В 1 н/о н/о +3.9 +2.9 93 +2 +2 1021.5 932.6
06 22.09 С 1 н/о н/о +4.8 +3.7 93 +3 +3 1021.1 932.5 +2.7 +11.2
07 22.09 В 1 н/о н/о +5.7 +4.5 92 +4 +4 1020.8 932.5
08 22.09 штиль 0 н/о н/о +8.3 +5.4 82 +8 +8 1019.4 932.0
09 22.09 В 2 н/о н/о +11.2 +6.5 73 +10 +10 1017.2 930.9
10 22.09 ЮВ 3 н/о н/о +13.2 +6.7 65 +12 +12 1015.8 930.2
11 22.09 ЮВ 4 н/о н/о +14.6 +7.3 62 +13 +13 1014.8 929.7
12 22.09 ЮВ 3 н/о н/о +16.1 +7.9 58 +16 +16 1013.4 928.8
13 22.09 ЮВ 3 н/о н/о +16.8 +8.1 56 +17 +17 1012.7 928.4
14 22.09 В 4 н/о н/о +17.3 +8.3 55 +17 +17 1012.2 928.1
15 22.09 ЮВ 3 н/о н/о +17.3 +9.0 58 +17 +17 1011.9 927.8
16 22.09 ЮВ 2 н/о н/о +16.2 +8.9 62 +16 +16 1012.2 927.8
17 22.09 штиль 0 н/о н/о +14.0 +9.5 74 +14 +14 1013.0 927.9
18 22.09 З 1 н/о н/о +11.9 +8.6 80 +12 +12 1014.0 928.2 +4.7 +17.4
19 22.09 ЮЗ 1 н/о н/о +11.2 +8.6 84 +11 +11 1014.2 928.2
20 22.09 З 1 н/о н/о +10.8 +8.6 86 +10 +10 1014.5 928.4
21 22.09 штиль 0 н/о н/о +9.8 +8.3 90 +9 +9 1014.5 928.1
22 22.09 штиль 0 н/о н/о +9.0 +7.6 91 +8 +8 1014.8 928.1
23 22.09 штиль 0 н/о н/о +8.9 +7.6 92 +8 +8 1014.5 927.8
00 23.09 штиль 0 н/о н/о +8.2 +6.9 92 +7 +7 1014.9 927.9
01 23.09 ЮЗ 1 н/о н/о +8.2 +7.0 92 +7 +7 1014.9 927.9
02 23.09 З 1 н/о н/о +7.5 +6.3 92 +7 +7 1015.1 927.9
03 23.09 З 1 н/о н/о +7.2 +6.1 93 +6 +6 1015.3 928.0
04 23.09 штиль 0 н/о н/о +6.1 +5.0 93 +5 +5 1015.6 927.9
05 23.09 СВ 1 н/о н/о +5.7 +4.7 93 +4 +4 1015.7 927.9
06 23.09 штиль 0 н/о н/о +7.8 +6.7 93 +7 +7 1015.1 928.0 +5.4 +12.2
07 23.09 СЗ 1 н/о н/о +9.4 +8.0 91 +9 +9 1015.0 928.4
08 23.09 ЮВ 1 н/о н/о +11.4 +9.4 88 +11 +11 1014.3 928.4
09 23.09 З 3 н/о н/о +13.8 +9.2 74 +13 +13 1013.7 928.5 0.0
10 23.09 СЗ 3 н/о н/о +14.4 +9.3 71 +14 +14 1013.5 928.5
11 23.09 З 2 н/о н/о +16.3 +10.2 67 +16 +16 1012.5 928.1
12 23.09 З 3 н/о н/о +16.0 +10.6 70 +16 +16 1012.7 928.2 0.0
13 23.09 З 5 н/о н/о +15.7 +10.3 70 +15 +15 1013.2 928.6
14 23.09 З 5 н/о н/о +14.2 +9.9 75 +13 +13 1014.2 929.1 0.0
15 23.09 З 3 н/о ливневой дождь н/о +12.8 +10.8 88 +11 +11 1015.2 929.6 2
16 23.09 З 3 н/о осадки н/о +12.4 +10.7 89 +11 +11 1015.4 929.7 2
17 23.09 З 3 н/о осадки н/о +12.2 +10.4 89 +11 +11 1015.7 929.9 0.9
18 23.09 З 3 н/о осадки {ливн. осадки} н/о +11.9 +10.3 90 +10 +10 1016.2 930.3 +7.5 +16.4 6

 

Местоположение метеостанции Кальванг (Австрия): широта 47.42 долгота 14.76 высота над уровнем моря 747 м.

В архиве по умолчанию представлена погода в Кальванге за последнюю неделю. Архивные данные за месяц целиком и за предыдущие месяцы, начиная с января 2011 года, Вы можете получить, выбрав интересующий диапазон дат из раскрывающегося списка и нажав кнопку "Ввод!".


*Определитесь, кто Вы:
робот инопланетянин человек

Внимание! Время в таблицах - всемирное. Для получения местного времени необходимо прибавить поправку, которая равна 1 ч.

Смотрите также архив погоды в соседних городах и на ближайших метеорологических станциях:

Погода в Пребихле (Австрия) (18 км)
Погода в Цельтвеге (Австрия) (24 км)
Погода в Цельтвеге (Австрия) (24 км)
Погода в Леобене (Австрия) (25 км)
Погода в Брукк-ан-дер-Муре (Австрия) (38 км)
Погода в Афленц-Курорте (Австрия) (39 км)
Погода в Капфенберге (Австрия) (41 км)
Погода в Капфенберг аэропорту (Австрия) (43 км)
Погода в Кёфлаге (Австрия) (46 км)
Погода в Ноймаркте (Австрия) (47 км)

Пояснения к столбцам:

Ветер - указаны скорость ветра в м/с - средняя за 10 мин, порывы в срок и между сроками (в фигурных скобках) и направление, откуда дует ветер: С - северный, СВ - северо-восточный, В - восточный, ЮВ - юго-восточный, Ю - южный, ЮЗ - юго-западный, З - западный, СЗ - северо-западный.
Видимость - горизонтальная дальность видимости в метрах или километрах. При видимости от 1 до 10 км при отсутствии осадков обычно наблюдается дымка, при ухудшении видимости до 1 км и менее - туман. В сухую погоду видимость может ухудшаться дымом, пылью или мглою.
Явления - указаны атмосферные явления, наблюдавшиеся в срок или в последний час перед сроком; фигурными скобками обозначены явления, наблюдавшиеся между сроками (за 1-3 часа до срока); квадратными скобками обозначены град или гололедные отложения с указанием их диаметра в мм.
Облачность - указаны через наклонную черту общая и нижняя облачность в баллах и высота нижней границы облаков в метрах; квадратными скобками обозначены формы облаков: Ci - перистые, Cs - перисто-слоистые, Cc - перисто-кучевые, Ac - высококучевые, As - высокослоистые, Sc - слоисто-кучевые, Ns - слоисто-дождевые, Cu - кучевые, Cb - кучево-дождевые. Подробнее классификацию облаков см. в Атласе облаков (PDF).
T - Температура воздуха - температура, измеренная на высоте 2 м над землей.
Td - Температура точки росы - температура, при понижении до которой содержащийся в воздухе водяной пар достигнет насыщения.
f - Относительная влажность воздуха - влажноcть воздуха, измеренная на высоте 2 м над землей.
Te - Эффективная температура - температура, которую ощущает одетый по сезону человек в тени. Характеристика душности погоды. При расчете учитывается влияние влажности воздуха и скорости ветра на теплоощущения человека.
Tes - Эффективная температура на солнце - температура, которую ощущает человек, с поправкой на солнечный нагрев. Характеристика знойности погоды. Зависит от высоты солнца над горизонтом, облачности и скорости ветра. Ночью, в пасмурную погоду, а также при ветре 12 м/с и более поправка равна нулю.
P - Атмосферное давление - приведенное к уровню моря атмосферное давление.
Po - Атмосферное давление - измеренное на уровне метеостанции атмосферное давление.
Tmin - Минимальная температура - минимум температуры воздуха на высоте 2 м над землей.
Tmax - Максимальная температура - максимум температуры воздуха на высоте 2 м над землей.
R - Количество осадков - Количество выпавших осадков за период времени, мм. При наведении курсора мыши на число - период времени, за который выпало указанное количество осадков.
R24 - Количество осадков - Количество выпавших осадков за 24 часа, мм.
S - Снежный покров - Высота снежного покрова, см. При наведении курсора мыши на число - состояние снежного покрова и степень покрытия местности в баллах.